Date String (YYYY-MM-DD hh:mm:ss) UTC,Instrument flags,Ambient pressure (hPa),Sample flow (lpm),Bypass flow (lpm),Sample temperature (°C),Ambient temperature (°C),ASC tube jacket temperature (°C),LED temperature (°C),Box temperature (°C),Sample RH (%),Span deviation,Mass concentration (μg/m³),Mass concentration (μg/m³),Mass concentration (μg/m³)
DateTimeUTC,F1_M11,P_M11,Q1_M11,Q2_M11,T1_M11,T2_M11,T3_M11,T4_M11,T5_M11,U1_M11,ZSPAN_M11,X0_M11,X2_M11,X1_M11
2023-02-23 13:00:00,,0819.6,5.01,0.00,22.6,21.9,00.0,31.3,24.1,02.6,0000.0,0005.18,0003.46,0003.18
2023-02-23 13:01:00,,0819.6,4.98,0.00,22.5,21.2,00.0,31.3,23.9,02.7,0000.0,0005.17,0003.46,0003.19
2023-02-23 13:02:00,,0819.7,5.00,0.00,22.4,20.7,00.0,31.2,23.8,02.7,0000.0,0005.06,0003.44,0003.18
2023-02-23 13:03:00,,0819.7,5.00,0.00,22.3,20.2,00.0,31.2,23.6,02.7,0000.0,0005.07,0003.45,0003.18
2023-02-23 13:04:00,,0819.8,5.00,0.00,22.3,20.7,00.0,31.1,23.7,02.7,0000.0,0005.04,0003.45,0003.18
2023-02-23 13:05:00,,0819.8,4.98,0.00,22.4,21.8,00.0,31.1,24.0,02.7,0000.0,0005.00,0003.46,0003.18
2023-02-23 13:06:00,,0819.8,4.96,0.00,22.5,22.7,00.0,31.1,24.3,02.7,0000.0,0005.00,0003.46,0003.18
2023-02-23 13:07:00,,0819.9,4.99,0.00,22.6,23.2,00.0,31.2,24.5,02.7,0000.0,0005.10,0003.46,0003.18
2023-02-23 13:08:00,,0819.9,4.99,0.00,22.6,22.6,00.0,31.2,24.3,02.6,0000.0,0005.09,0003.45,0003.17
2023-02-23 13:09:00,,0819.8,5.01,0.00,22.5,21.8,00.0,31.2,24.1,02.7,0000.0,0004.95,0003.42,0003.17
2023-02-23 13:10:00,,0819.8,4.98,0.00,22.4,21.2,00.0,31.2,23.9,02.7,0000.0,0004.98,0003.42,0003.18
2023-02-23 13:11:00,,0819.8,5.00,0.00,22.4,20.6,00.0,31.2,23.6,02.7,0000.0,0005.09,0003.42,0003.17
2023-02-23 13:12:00,,0819.8,5.00,0.00,22.3,20.2,00.0,31.2,23.5,02.7,0000.0,0005.13,0003.41,0003.16
2023-02-23 13:13:00,,0819.8,5.00,0.00,22.2,20.7,00.0,31.1,23.7,02.7,0000.0,0005.29,0003.43,0003.16
2023-02-23 13:14:00,,0819.8,4.99,0.00,22.3,21.8,00.0,31.1,24.0,02.7,0000.0,0005.28,0003.42,0003.15
2023-02-23 13:15:00,,0819.9,5.04,0.00,22.4,22.6,00.0,31.1,24.2,02.7,0000.0,0005.34,0003.44,0003.17
2023-02-23 13:16:00,,0819.9,4.95,0.00,22.5,23.1,00.0,31.1,24.4,02.7,0000.0,0005.29,0003.44,0003.15
2023-02-23 13:17:00,,0819.9,5.02,0.00,22.6,22.6,00.0,31.2,24.3,02.7,0000.0,0005.34,0003.45,0003.16
2023-02-23 13:18:00,,0819.9,5.00,0.00,22.5,22.0,00.0,31.2,24.1,02.7,0000.0,0005.23,0003.44,0003.16
2023-02-23 13:19:00,,0819.8,5.01,0.00,22.5,21.4,00.0,31.2,24.0,02.7,0000.0,0005.37,0003.46,0003.15
2023-02-23 13:20:00,,0819.7,4.97,0.00,22.4,20.9,00.0,31.2,23.8,02.7,0000.0,0005.55,0003.48,0003.15
2023-02-23 13:21:00,,0819.7,5.00,0.00,22.3,20.5,00.0,31.1,23.7,02.7,0000.0,0005.59,0003.48,0003.15
2023-02-23 13:22:00,,0819.7,5.01,0.00,22.3,20.8,00.0,31.1,23.7,02.7,0000.0,0005.44,0003.46,0003.14
2023-02-23 13:23:00,,0819.8,5.04,0.00,22.3,21.7,00.0,31.1,24.0,02.7,0000.0,0005.41,0003.45,0003.14
2023-02-23 13:24:00,,0819.8,4.99,0.00,22.4,22.5,00.0,31.1,24.2,02.7,0000.0,0005.38,0003.44,0003.14
2023-02-23 13:25:00,,0819.8,4.98,0.00,22.5,23.1,00.0,31.1,24.4,02.7,0000.0,0005.25,0003.42,0003.13
2023-02-23 13:26:00,,0819.7,4.99,0.00,22.6,22.8,00.0,31.2,24.3,02.7,0000.0,0005.13,0003.38,0003.11
2023-02-23 13:27:00,,0819.7,4.98,0.00,22.5,22.0,00.0,31.2,24.1,02.7,0000.0,0005.13,0003.37,0003.11
2023-02-23 13:28:00,,0819.6,5.01,0.00,22.5,21.4,00.0,31.2,23.9,02.6,0000.0,0005.07,0003.36,0003.11
2023-02-23 13:29:00,,0819.7,4.98,0.00,22.4,20.9,00.0,31.2,23.7,02.7,0000.0,0005.07,0003.36,0003.08
2023-02-23 13:30:00,,0819.7,5.00,0.00,22.3,20.4,00.0,31.1,23.6,02.7,0000.0,0004.90,0003.33,0003.06
2023-02-23 13:31:00,,0819.8,5.01,0.00,22.2,20.7,00.0,31.1,23.6,02.7,0000.0,0004.74,0003.32,0003.06
2023-02-23 13:32:00,,0819.9,5.00,0.00,22.3,21.7,00.0,31.1,23.9,02.7,0000.0,0004.72,0003.32,0003.05
2023-02-23 13:33:00,,0819.9,5.02,0.00,22.4,22.6,00.0,31.1,24.2,02.7,0000.0,0004.77,0003.33,0003.06
2023-02-23 13:34:00,,0820.0,4.98,0.00,22.5,23.1,00.0,31.1,24.4,02.7,0000.0,0004.82,0003.35,0003.08
2023-02-23 13:35:00,,0819.9,5.01,0.00,22.6,22.7,00.0,31.1,24.3,02.6,0000.0,0004.76,0003.35,0003.06
2023-02-23 13:36:00,,0820.0,5.01,0.00,22.5,22.0,00.0,31.2,24.1,02.7,0000.0,0004.97,0003.37,0003.07
2023-02-23 13:37:00,,0820.0,5.01,0.00,22.5,21.4,00.0,31.2,24.0,02.7,0000.0,0005.65,0003.39,0003.10
2023-02-23 13:38:00,,0820.0,5.01,0.00,22.4,20.9,00.0,31.2,23.8,02.7,0000.0,0005.89,0003.37,0003.10
2023-02-23 13:39:00,,0820.0,5.00,0.00,22.3,20.5,00.0,31.1,23.6,02.7,0000.0,0005.87,0003.37,0003.11
2023-02-23 13:40:00,,0820.0,5.00,0.00,22.2,20.2,00.0,31.1,23.5,02.7,0000.0,0005.89,0003.38,0003.13
2023-02-23 13:41:00,,0820.1,5.00,0.00,22.2,21.0,00.0,31.1,23.8,02.7,0000.0,0005.90,0003.39,0003.15
2023-02-23 13:42:00,,0820.1,5.02,0.00,22.3,22.0,00.0,31.1,24.1,02.7,0000.0,0005.88,0003.39,0003.16
2023-02-23 13:43:00,,0820.1,5.02,0.00,22.4,22.8,00.0,31.1,24.3,02.7,0000.0,0005.84,0003.39,0003.18
2023-02-23 13:44:00,,0820.0,5.06,0.00,22.5,23.1,00.0,31.1,24.4,02.7,0000.0,0005.83,0003.41,0003.20
2023-02-23 13:45:00,,0820.0,4.96,0.00,22.5,22.4,00.0,31.1,24.2,02.7,0000.0,0005.78,0003.41,0003.22
2023-02-23 13:46:00,,0820.0,5.02,0.00,22.5,21.7,00.0,31.2,24.1,02.8,0000.0,0005.73,0003.41,0003.24
2023-02-23 13:47:00,,0820.2,4.99,0.00,22.4,21.1,00.0,31.1,23.8,02.8,0000.0,0005.75,0003.45,0003.27
2023-02-23 13:48:00,,0820.2,5.00,0.00,22.3,20.5,00.0,31.1,23.7,02.8,0000.0,0005.38,0003.48,0003.30
2023-02-23 13:49:00,,0820.3,5.01,0.00,22.2,20.2,00.0,31.1,23.6,02.8,0000.0,0004.98,0003.48,0003.32
2023-02-23 13:50:00,,0820.3,5.00,0.00,22.2,20.8,00.0,31.1,23.7,02.8,0000.0,0005.03,0003.52,0003.34
2023-02-23 13:51:00,,0820.3,5.00,0.00,22.3,21.8,00.0,31.0,24.0,02.8,0000.0,0005.07,0003.54,0003.37
2023-02-23 13:52:00,,0820.4,4.99,0.00,22.4,22.7,00.0,31.0,24.2,02.8,0000.0,0005.14,0003.56,0003.38
2023-02-23 13:53:00,,0820.5,5.00,0.00,22.5,23.1,00.0,31.1,24.3,02.8,0000.0,0005.26,0003.60,0003.39
2023-02-23 13:54:00,,0820.5,5.00,0.00,22.5,22.5,00.0,31.1,24.2,02.8,0000.0,0005.37,0003.62,0003.40
2023-02-23 13:55:00,,0820.6,5.01,0.00,22.4,21.8,00.0,31.1,24.0,02.8,0000.0,0005.37,0003.63,0003.41
2023-02-23 13:56:00,,0820.6,4.99,0.00,22.4,21.1,00.0,31.1,23.7,02.9,0000.0,0006.19,0003.66,0003.43
2023-02-23 13:57:00,,0820.7,5.01,0.00,22.3,20.6,00.0,31.1,23.6,02.9,0000.0,0006.80,0003.69,0003.46
2023-02-23 13:58:00,,0820.6,5.00,0.00,22.2,20.2,00.0,31.1,23.5,02.9,0000.0,0006.81,0003.70,0003.47
2023-02-23 13:59:00,,0820.6,5.02,0.00,22.2,21.0,00.0,31.0,23.7,03.0,0000.0,0006.67,0003.72,0003.48
